Ali Cat — MZCL8 — position and weather

sailwx.info

Track history (hours):
 
Tides and Currents Weather Stations Pressure Air Temp Water Temp Dewpoint Dewpoint Depression Visibility Wind Speed Wind Dir Waves Ship Positions

Ali Cat

Operator: MRCC Clyde

Last reported at 2018-May-25 20:53 UTC. Time now 2018-May-26 02:35 UTC.
Position N 55°58' W 004°51'.

Length 19 m.

Type: Passenger vessel. MMSI: 235056506.

Date/timePositionNaut miles runAvg speedWind from/ knotsBaromVisibWave heightAir tempDewpointWater temp
2018-May-25 20:53N 55°58' W 004°51'1 0.5
2018-May-25 18:28N 55°57' W 004°53'1 0.1
2018-May-25 08:34N 55°58' W 004°51'210.5
2018-May-25 08:23N 55°57' W 004°54'0 0.0
2018-May-24 07:26N 55°57' W 004°54'1 0.5
2018-May-24 06:23N 55°57' W 004°53'0 0.0
2018-May-23 20:56N 55°57' W 004°52'1 0.6
2018-May-23 19:56N 55°57' W 004°53'2 1.8
2018-May-23 19:05N 55°58' W 004°51'110.4
2018-May-23 18:59N 55°57' W 004°53'0 0.4
2018-May-23 17:56N 55°57' W 004°53'2 1.8
2018-May-23 17:04N 55°58' W 004°51'111.5
2018-May-23 16:59N 55°57' W 004°52'0 0.1
2018-May-23 15:00N 55°57' W 004°52'1 1.3
2018-May-23 13:52N 55°57' W 004°55'2 2.2
2018-May-23 13:03N 55°57' W 004°52'110.3
2018-May-23 13:00N 55°57' W 004°53'1 2.3
2018-May-23 12:26N 55°58' W 004°50'2 3.9
2018-May-23 11:56N 55°57' W 004°54'1 1.7
2018-May-23 11:05N 55°58' W 004°51'110.4
2018-May-23 11:00N 55°57' W 004°52'1 1.1
2018-May-23 10:06N 55°58' W 004°51'110.3
2018-May-23 09:57N 55°57' W 004°53'0 0.3
2018-May-23 09:00N 55°57' W 004°53'1 1.1
2018-May-23 08:05N 55°57' W 004°51'110.0
2018-May-23 07:57N 55°57' W 004°53'1 0.7
2018-May-23 07:00N 55°57' W 004°52'1 1.7
2018-May-23 06:29N 55°58' W 004°51'1 1.3
2018-May-23 06:00N 55°57' W 004°52'0 0.1
2018-May-22 22:25N 55°58' W 004°51'0 0.3
2018-May-22 20:58N 55°57' W 004°52'0 0.2
2018-May-22 20:03N 55°57' W 004°52'1 1.1
2018-May-22 18:55N 55°57' W 004°54'2 2.9
2018-May-22 18:09N 55°58' W 004°50'2 9.4
2018-May-22 17:59N 55°57' W 004°53'1 0.6
2018-May-22 17:03N 55°57' W 004°52'110.1
2018-May-22 16:59N 55°57' W 004°53'1 0.7
2018-May-22 16:02N 55°57' W 004°52'110.1
2018-May-22 15:59N 55°57' W 004°53'1 0.6
2018-May-22 15:02N 55°57' W 004°52'110.2
2018-May-22 14:55N 55°57' W 004°54'2 2.0
2018-May-22 14:05N 55°58' W 004°51'110.5
2018-May-22 13:59N 55°57' W 004°53'1 1.4
2018-May-22 13:06N 55°58' W 004°51'210.6
2018-May-22 12:56N 55°57' W 004°54'1 1.4
2018-May-22 12:03N 55°57' W 004°52'110.5
2018-May-22 12:00N 55°57' W 004°52'1 0.8
2018-May-22 11:04N 55°58' W 004°51'210.2
2018-May-22 10:53N 55°57' W 004°54'1 0.9
2018-May-22 09:59N 55°57' W 004°53'1 0.9
2018-May-22 09:03N 55°57' W 004°52'110.0
2018-May-22 08:57N 55°57' W 004°53'0 0.4
2018-May-22 08:01N 55°57' W 004°53'0 9.9
2018-May-22 07:59N 55°57' W 004°53'1 1.4
2018-May-22 07:07N 55°58' W 004°51'1 9.8
2018-May-22 06:58N 55°57' W 004°53'1 1.5
2018-May-22 06:02N 55°58' W 004°51'110.1
2018-May-22 05:57N 55°57' W 004°52'1 0.1
2018-May-21 22:23N 55°57' W 004°51'0 0.0
2018-May-21 21:01N 55°57' W 004°51'210.2
2018-May-21 20:52N 55°57' W 004°54'1 1.8
2018-May-21 20:03N 55°57' W 004°51'110.2
2018-May-21 19:58N 55°57' W 004°53'1 1.1
2018-May-21 19:04N 55°58' W 004°51'110.5
2018-May-21 18:58N 55°57' W 004°53'1 1.3
2018-May-21 18:04N 55°57' W 004°51'110.4
2018-May-21 18:00N 55°57' W 004°52'0 0.1
2018-May-21 17:00N 55°57' W 004°52'0 0.2
2018-May-21 15:58N 55°57' W 004°53'1 0.6
2018-May-21 14:55N 55°57' W 004°54'1 0.4
2018-May-21 12:59N 55°57' W 004°53'1 0.8
2018-May-21 11:54N 55°57' W 004°54'0 0.2
2018-May-21 10:55N 55°57' W 004°54'0 0.3
2018-May-21 09:57N 55°57' W 004°53'1 1.1
2018-May-21 09:04N 55°57' W 004°52'110.0
2018-May-21 08:58N 55°57' W 004°53'2 3.2
2018-May-21 08:25N 55°58' W 004°50'2 4.2
2018-May-21 07:55N 55°57' W 004°54'2 2.0
2018-May-21 07:06N 55°58' W 004°51'2 9.7
2018-May-21 06:57N 55°57' W 004°53'2 2.1
2018-May-21 06:04N 55°58' W 004°50'110.0
2018-May-21 06:00N 55°57' W 004°52'1 0.2
2018-May-20 21:55N 55°57' W 004°54'0 0.3
2018-May-20 20:57N 55°57' W 004°53'1 1.8
2018-May-20 20:06N 55°58' W 004°51'110.5
2018-May-20 19:59N 55°57' W 004°53'0 0.3
2018-May-20 18:59N 55°58' W 004°53'0 0.4
2018-May-20 17:57N 55°57' W 004°53'1 0.8
2018-May-20 17:01N 55°58' W 004°52'111.3
2018-May-20 16:57N 55°57' W 004°53'0 0.0
2018-May-20 15:58N 55°57' W 004°53'1 0.7
2018-May-20 14:52N 55°57' W 004°55'1 1.0
2018-May-20 13:59N 55°57' W 004°53'2 1.9
2018-May-20 13:07N 55°58' W 004°51'211.3
2018-May-20 12:56N 55°57' W 004°54'1 1.6
2018-May-20 12:04N 55°58' W 004°52'111.6
2018-May-20 12:00N 55°57' W 004°53'1 0.4
2018-May-20 09:05N 55°58' W 004°51'110.3
2018-May-20 09:00N 55°57' W 004°52'1 0.1
2018-May-20 00:44N 55°58' W 004°50'311.7
2018-May-20 00:30N 55°57' W 004°55'2 1.5
2018-May-19 23:21N 55°57' W 004°52'0 0.2
2018-May-19 22:21N 55°57' W 004°52'0 0.1
2018-May-19 20:01N 55°57' W 004°52'0 0.1
2018-May-19 16:00N 55°57' W 004°53'0 0.1
2018-May-19 15:00N 55°57' W 004°52'0 0.4
2018-May-19 14:04N 55°58' W 004°52'0 0.5
2018-May-19 13:01N 55°57' W 004°53'1 0.7
2018-May-19 12:06N 55°58' W 004°52'210.9
2018-May-19 11:58N 55°57' W 004°54'2 2.3
2018-May-19 11:08N 55°58' W 004°51'2 0.6
2018-May-19 07:54N 55°57' W 004°54'0 0.3
2018-May-19 06:56N 55°57' W 004°54'0 0.0
2018-May-19 00:35N 55°57' W 004°53'0 0.1
2018-May-18 23:16N 55°57' W 004°54'0 0.1
2018-May-18 20:55N 55°57' W 004°54'1 0.3
2018-May-18 17:03N 55°58' W 004°52'110.2
2018-May-18 16:55N 55°57' W 004°54'1 0.8
2018-May-18 15:03N 55°58' W 004°52'110.7
2018-May-18 14:59N 55°57' W 004°53'1 0.7
2018-May-18 13:56N 55°57' W 004°54'1 0.9
2018-May-18 13:00N 55°57' W 004°53'0 0.2
2018-May-18 11:59N 55°57' W 004°53'1 1.4
2018-May-18 11:06N 55°58' W 004°51'110.4
2018-May-18 11:00N 55°57' W 004°52'0 0.1
2018-May-18 09:01N 55°57' W 004°52'110.4
2018-May-18 08:57N 55°57' W 004°53'0 0.1
2018-May-18 07:57N 55°57' W 004°53'0 0.3
2018-May-18 06:58N 55°57' W 004°53'0 0.3
2018-May-18 05:54N 55°57' W 004°53'0 0.0
2018-May-17 22:18N 55°57' W 004°53'1 0.4
2018-May-17 20:55N 55°57' W 004°54'1 0.3
2018-May-17 18:58N 55°57' W 004°53'1 0.7
2018-May-17 17:56N 55°57' W 004°54'1 0.3
2018-May-17 14:59N 55°57' W 004°53'1 0.7
2018-May-17 13:55N 55°57' W 004°54'0 0.1
2018-May-17 12:56N 55°57' W 004°54'0 0.2
2018-May-17 11:57N 55°57' W 004°54'0 0.1
2018-May-17 09:56N 55°57' W 004°54'2 1.9
2018-May-17 09:05N 55°58' W 004°51'110.3
2018-May-17 08:58N 55°57' W 004°53'0 0.5
2018-May-17 08:01N 55°57' W 004°52'110.5
2018-May-17 07:58N 55°57' W 004°53'0 0.4
2018-May-17 06:55N 55°57' W 004°54'2 3.0
2018-May-17 06:06N 55°58' W 004°50'110.0
2018-May-17 06:00N 55°57' W 004°52'1 0.1
2018-May-16 22:20N 55°57' W 004°53'1 0.5
2018-May-16 21:03N 55°57' W 004°52'210.0
2018-May-16 20:50N 55°57' W 004°55'3 1.5
2018-May-16 19:06N 55°58' W 004°51'2 0.6
2018-May-16 15:57N 55°57' W 004°54'1 0.7
2018-May-16 14:04N 55°58' W 004°51'210.4
2018-May-16 13:54N 55°57' W 004°54'1 0.8
2018-May-16 12:59N 55°57' W 004°53'0 0.3
2018-May-16 12:01N 55°57' W 004°52'210.6
2018-May-16 11:52N 55°57' W 004°55'2 1.9
2018-May-16 11:01N 55°57' W 004°52'110.5
2018-May-16 10:57N 55°57' W 004°53'2 3.3
2018-May-16 10:12N 55°58' W 004°49'210.4
2018-May-16 09:59N 55°57' W 004°53'2 1.9
2018-May-16 09:08N 55°58' W 004°50'210.4
2018-May-16 08:58N 55°57' W 004°53'0 0.2
2018-May-16 07:57N 55°57' W 004°53'1 1.5
2018-May-16 07:05N 55°57' W 004°51'110.4
2018-May-16 06:59N 55°57' W 004°53'0 0.1
2018-May-16 05:56N 55°57' W 004°53'0 0.0
2018-May-15 22:19N 55°57' W 004°53'  
Track history (hours):
 
Tides and Currents Weather Stations Pressure Air Temp Water Temp Dewpoint Dewpoint Depression Visibility Wind Speed Wind Dir Waves Ship Positions

Ali Cat

Operator: MRCC Clyde

Last reported at 2018-May-25 20:53 UTC. Time now 2018-May-26 02:35 UTC.
Position N 55°58' W 004°51'.

Length 19 m.

Type: Passenger vessel. MMSI: 235056506.

Date/timePositionNaut miles runAvg speedWind from/ knotsBaromVisibWave heightAir tempDewpointWater temp
2018-May-25 20:53N 55°58' W 004°51'1 0.5
2018-May-25 18:28N 55°57' W 004°53'1 0.1
2018-May-25 08:34N 55°58' W 004°51'210.5
2018-May-25 08:23N 55°57' W 004°54'0 0.0
2018-May-24 07:26N 55°57' W 004°54'1 0.5
2018-May-24 06:23N 55°57' W 004°53'0 0.0
2018-May-23 20:56N 55°57' W 004°52'1 0.6
2018-May-23 19:56N 55°57' W 004°53'2 1.8
2018-May-23 19:05N 55°58' W 004°51'110.4
2018-May-23 18:59N 55°57' W 004°53'0 0.4
2018-May-23 17:56N 55°57' W 004°53'2 1.8
2018-May-23 17:04N 55°58' W 004°51'111.5
2018-May-23 16:59N 55°57' W 004°52'0 0.1
2018-May-23 15:00N 55°57' W 004°52'1 1.3
2018-May-23 13:52N 55°57' W 004°55'2 2.2
2018-May-23 13:03N 55°57' W 004°52'110.3
2018-May-23 13:00N 55°57' W 004°53'1 2.3
2018-May-23 12:26N 55°58' W 004°50'2 3.9
2018-May-23 11:56N 55°57' W 004°54'1 1.7
2018-May-23 11:05N 55°58' W 004°51'110.4
2018-May-23 11:00N 55°57' W 004°52'1 1.1
2018-May-23 10:06N 55°58' W 004°51'110.3
2018-May-23 09:57N 55°57' W 004°53'0 0.3
2018-May-23 09:00N 55°57' W 004°53'1 1.1
2018-May-23 08:05N 55°57' W 004°51'110.0
2018-May-23 07:57N 55°57' W 004°53'1 0.7
2018-May-23 07:00N 55°57' W 004°52'1 1.7
2018-May-23 06:29N 55°58' W 004°51'1 1.3
2018-May-23 06:00N 55°57' W 004°52'0 0.1
2018-May-22 22:25N 55°58' W 004°51'0 0.3
2018-May-22 20:58N 55°57' W 004°52'0 0.2
2018-May-22 20:03N 55°57' W 004°52'1 1.1
2018-May-22 18:55N 55°57' W 004°54'2 2.9
2018-May-22 18:09N 55°58' W 004°50'2 9.4
2018-May-22 17:59N 55°57' W 004°53'1 0.6
2018-May-22 17:03N 55°57' W 004°52'110.1
2018-May-22 16:59N 55°57' W 004°53'1 0.7
2018-May-22 16:02N 55°57' W 004°52'110.1
2018-May-22 15:59N 55°57' W 004°53'1 0.6
2018-May-22 15:02N 55°57' W 004°52'110.2
2018-May-22 14:55N 55°57' W 004°54'2 2.0
2018-May-22 14:05N 55°58' W 004°51'110.5
2018-May-22 13:59N 55°57' W 004°53'1 1.4
2018-May-22 13:06N 55°58' W 004°51'210.6
2018-May-22 12:56N 55°57' W 004°54'1 1.4
2018-May-22 12:03N 55°57' W 004°52'110.5
2018-May-22 12:00N 55°57' W 004°52'1 0.8
2018-May-22 11:04N 55°58' W 004°51'210.2
2018-May-22 10:53N 55°57' W 004°54'1 0.9
2018-May-22 09:59N 55°57' W 004°53'1 0.9
2018-May-22 09:03N 55°57' W 004°52'110.0
2018-May-22 08:57N 55°57' W 004°53'0 0.4
2018-May-22 08:01N 55°57' W 004°53'0 9.9
2018-May-22 07:59N 55°57' W 004°53'1 1.4
2018-May-22 07:07N 55°58' W 004°51'1 9.8
2018-May-22 06:58N 55°57' W 004°53'1 1.5
2018-May-22 06:02N 55°58' W 004°51'110.1
2018-May-22 05:57N 55°57' W 004°52'1 0.1
2018-May-21 22:23N 55°57' W 004°51'0 0.0
2018-May-21 21:01N 55°57' W 004°51'210.2
2018-May-21 20:52N 55°57' W 004°54'1 1.8
2018-May-21 20:03N 55°57' W 004°51'110.2
2018-May-21 19:58N 55°57' W 004°53'1 1.1
2018-May-21 19:04N 55°58' W 004°51'110.5
2018-May-21 18:58N 55°57' W 004°53'1 1.3
2018-May-21 18:04N 55°57' W 004°51'110.4
2018-May-21 18:00N 55°57' W 004°52'0 0.1
2018-May-21 17:00N 55°57' W 004°52'0 0.2
2018-May-21 15:58N 55°57' W 004°53'1 0.6
2018-May-21 14:55N 55°57' W 004°54'1 0.4
2018-May-21 12:59N 55°57' W 004°53'1 0.8
2018-May-21 11:54N 55°57' W 004°54'0 0.2
2018-May-21 10:55N 55°57' W 004°54'0 0.3
2018-May-21 09:57N 55°57' W 004°53'1 1.1
2018-May-21 09:04N 55°57' W 004°52'110.0
2018-May-21 08:58N 55°57' W 004°53'2 3.2
2018-May-21 08:25N 55°58' W 004°50'2 4.2
2018-May-21 07:55N 55°57' W 004°54'2 2.0
2018-May-21 07:06N 55°58' W 004°51'2 9.7
2018-May-21 06:57N 55°57' W 004°53'2 2.1
2018-May-21 06:04N 55°58' W 004°50'110.0
2018-May-21 06:00N 55°57' W 004°52'1 0.2
2018-May-20 21:55N 55°57' W 004°54'0 0.3
2018-May-20 20:57N 55°57' W 004°53'1 1.8
2018-May-20 20:06N 55°58' W 004°51'110.5
2018-May-20 19:59N 55°57' W 004°53'0 0.3
2018-May-20 18:59N 55°58' W 004°53'0 0.4
2018-May-20 17:57N 55°57' W 004°53'1 0.8
2018-May-20 17:01N 55°58' W 004°52'111.3
2018-May-20 16:57N 55°57' W 004°53'0 0.0
2018-May-20 15:58N 55°57' W 004°53'1 0.7
2018-May-20 14:52N 55°57' W 004°55'1 1.0
2018-May-20 13:59N 55°57' W 004°53'2 1.9
2018-May-20 13:07N 55°58' W 004°51'211.3
2018-May-20 12:56N 55°57' W 004°54'1 1.6
2018-May-20 12:04N 55°58' W 004°52'111.6
2018-May-20 12:00N 55°57' W 004°53'1 0.4
2018-May-20 09:05N 55°58' W 004°51'110.3
2018-May-20 09:00N 55°57' W 004°52'1 0.1
2018-May-20 00:44N 55°58' W 004°50'311.7
2018-May-20 00:30N 55°57' W 004°55'2 1.5
2018-May-19 23:21N 55°57' W 004°52'0 0.2
2018-May-19 22:21N 55°57' W 004°52'0 0.1
2018-May-19 20:01N 55°57' W 004°52'0 0.1
2018-May-19 16:00N 55°57' W 004°53'0 0.1
2018-May-19 15:00N 55°57' W 004°52'0 0.4
2018-May-19 14:04N 55°58' W 004°52'0 0.5
2018-May-19 13:01N 55°57' W 004°53'1 0.7
2018-May-19 12:06N 55°58' W 004°52'210.9
2018-May-19 11:58N 55°57' W 004°54'2 2.3
2018-May-19 11:08N 55°58' W 004°51'2 0.6
2018-May-19 07:54N 55°57' W 004°54'0 0.3
2018-May-19 06:56N 55°57' W 004°54'0 0.0
2018-May-19 00:35N 55°57' W 004°53'0 0.1
2018-May-18 23:16N 55°57' W 004°54'0 0.1
2018-May-18 20:55N 55°57' W 004°54'1 0.3
2018-May-18 17:03N 55°58' W 004°52'110.2
2018-May-18 16:55N 55°57' W 004°54'1 0.8
2018-May-18 15:03N 55°58' W 004°52'110.7
2018-May-18 14:59N 55°57' W 004°53'1 0.7
2018-May-18 13:56N 55°57' W 004°54'1 0.9
2018-May-18 13:00N 55°57' W 004°53'0 0.2
2018-May-18 11:59N 55°57' W 004°53'1 1.4
2018-May-18 11:06N 55°58' W 004°51'110.4
2018-May-18 11:00N 55°57' W 004°52'0 0.1
2018-May-18 09:01N 55°57' W 004°52'110.4
2018-May-18 08:57N 55°57' W 004°53'0 0.1
2018-May-18 07:57N 55°57' W 004°53'0 0.3
2018-May-18 06:58N 55°57' W 004°53'0 0.3
2018-May-18 05:54N 55°57' W 004°53'0 0.0
2018-May-17 22:18N 55°57' W 004°53'1 0.4
2018-May-17 20:55N 55°57' W 004°54'1 0.3
2018-May-17 18:58N 55°57' W 004°53'1 0.7
2018-May-17 17:56N 55°57' W 004°54'1 0.3
2018-May-17 14:59N 55°57' W 004°53'1 0.7
2018-May-17 13:55N 55°57' W 004°54'0 0.1
2018-May-17 12:56N 55°57' W 004°54'0 0.2
2018-May-17 11:57N 55°57' W 004°54'0 0.1
2018-May-17 09:56N 55°57' W 004°54'2 1.9
2018-May-17 09:05N 55°58' W 004°51'110.3
2018-May-17 08:58N 55°57' W 004°53'0 0.5
2018-May-17 08:01N 55°57' W 004°52'110.5
2018-May-17 07:58N 55°57' W 004°53'0 0.4
2018-May-17 06:55N 55°57' W 004°54'2 3.0
2018-May-17 06:06N 55°58' W 004°50'110.0
2018-May-17 06:00N 55°57' W 004°52'1 0.1
2018-May-16 22:20N 55°57' W 004°53'1 0.5
2018-May-16 21:03N 55°57' W 004°52'210.0
2018-May-16 20:50N 55°57' W 004°55'3 1.5
2018-May-16 19:06N 55°58' W 004°51'2 0.6
2018-May-16 15:57N 55°57' W 004°54'1 0.7
2018-May-16 14:04N 55°58' W 004°51'210.4
2018-May-16 13:54N 55°57' W 004°54'1 0.8
2018-May-16 12:59N 55°57' W 004°53'0 0.3
2018-May-16 12:01N 55°57' W 004°52'210.6
2018-May-16 11:52N 55°57' W 004°55'2 1.9
2018-May-16 11:01N 55°57' W 004°52'110.5
2018-May-16 10:57N 55°57' W 004°53'2 3.3
2018-May-16 10:12N 55°58' W 004°49'210.4
2018-May-16 09:59N 55°57' W 004°53'2 1.9
2018-May-16 09:08N 55°58' W 004°50'210.4
2018-May-16 08:58N 55°57' W 004°53'0 0.2
2018-May-16 07:57N 55°57' W 004°53'1 1.5
2018-May-16 07:05N 55°57' W 004°51'110.4
2018-May-16 06:59N 55°57' W 004°53'0 0.1
2018-May-16 05:56N 55°57' W 004°53'0 0.0
2018-May-15 22:19N 55°57' W 004°53'  

Dump ship's entire track history